TimePDT,TemperatureF,Dew PointF,Humidity,Sea Level PressureIn,VisibilityMPH,Wind Direction,Wind SpeedMPH,Gust SpeedMPH,PrecipitationIn,Events,Conditions,WindDirDegrees,DateUTC
12:53 AM,66.0,30.9,27,29.96,10.0,West,9.2,-,N/A,,Clear,260,2013-07-25 07:53:00
1:53 AM,64.0,28.0,26,29.97,10.0,West,5.8,-,N/A,,Clear,280,2013-07-25 08:53:00
2:53 AM,63.0,27.0,26,29.98,10.0,West,4.6,-,N/A,,Clear,270,2013-07-25 09:53:00
3:53 AM,61.0,28.9,30,29.99,10.0,WNW,9.2,-,N/A,,Clear,290,2013-07-25 10:53:00
4:53 AM,60.1,28.9,31,30.00,10.0,Calm,Calm,-,N/A,,Clear,0,2013-07-25 11:53:00
5:53 AM,57.9,33.1,39,30.00,10.0,Calm,Calm,-,N/A,,Clear,0,2013-07-25 12:53:00
6:53 AM,61.0,33.1,35,30.02,10.0,Calm,Calm,-,N/A,,Clear,0,2013-07-25 13:53:00
7:53 AM,69.1,34.0,27,30.03,10.0,NNE,4.6,-,N/A,,Clear,30,2013-07-25 14:53:00
8:53 AM,73.0,33.1,23,30.05,10.0,Calm,Calm,-,N/A,,Clear,0,2013-07-25 15:53:00
9:53 AM,78.1,30.9,18,30.05,10.0,Calm,Calm,-,N/A,,Clear,0,2013-07-25 16:53:00
10:53 AM,82.9,33.1,17,30.04,10.0,Calm,Calm,-,N/A,,Clear,0,2013-07-25 17:53:00
11:53 AM,86.0,32.0,14,30.03,10.0,Variable,3.5,-,N/A,,Clear,0,2013-07-25 18:53:00
12:53 PM,88.0,30.9,13,30.03,10.0,Variable,3.5,-,N/A,,Clear,0,2013-07-25 19:53:00
1:53 PM,95.0,30.9,10,30.00,10.0,Variable,6.9,-,N/A,,Clear,0,2013-07-25 20:53:00
2:53 PM,93.9,32.0,11,29.99,10.0,Variable,5.8,16.1,N/A,,Clear,0,2013-07-25 21:53:00
3:53 PM,93.0,34.0,12,29.99,10.0,SSE,8.1,-,N/A,,Clear,160,2013-07-25 22:53:00
4:53 PM,96.1,34.0,11,29.96,10.0,NNW,5.8,-,N/A,,Clear,330,2013-07-25 23:53:00
5:53 PM,95.0,35.1,12,29.96,10.0,Calm,Calm,-,N/A,,Clear,0,2013-07-26 00:53:00
6:53 PM,93.0,37.9,15,29.95,10.0,North,4.6,-,N/A,,Clear,360,2013-07-26 01:53:00
7:53 PM,87.1,37.0,17,29.96,10.0,NNW,10.4,-,N/A,,Clear,330,2013-07-26 02:53:00
8:53 PM,78.1,32.0,19,29.99,10.0,NNW,10.4,-,N/A,,Clear,330,2013-07-26 03:53:00
9:53 PM,79.0,25.0,14,29.99,10.0,NNW,8.1,-,N/A,,Clear,330,2013-07-26 04:53:00
10:53 PM,70.0,28.0,21,30.01,10.0,Variable,4.6,-,N/A,,Clear,0,2013-07-26 05:53:00
11:53 PM,68.0,27.0,21,30.02,10.0,SW,8.1,-,N/A,,Clear,220,2013-07-26 06:53:00